Location: Beddau
(51.5575°N, 3.3561°W)
Time: 00:56:15
(UTC+00:00)

Ariane Rocket - Pass Details

Date: 03 March 2021
Orbit: 759 x 771 km, 98.7° (Epoch: 13 April)

Event Time Altitude Azimuth Distance (km) Brightness Sun altitude
Exits shadow 18:42:04 - 114° (ESE) 2,611 5.2 -7.7°
Reaches altitude 10° 18:42:58 10° 109° (ESE) 2,316 4.9 -7.9°
Maximum altitude 18:46:56 23° 57° (ENE) 1,583 4.2 -8.5°
Drops below altitude 10° 18:50:55 10° 6° (N) 2,325 5.5 -9.1°
Sets 18:53:37 0° 353° (N) 3,254 6.4 -9.5°
